Location: ??
(35.4032°N, 139.3073°E)
Time: 12:31:00
(UTC+00:00)

SL-16 R/B - Pass Details

Date: 13 April 2024
Orbit: 839 x 849 km, 71.0° (Epoch: 26 May)

Event Time Altitude Azimuth Distance (km) Brightness Sun altitude
Exits shadow 19:28:13 - 228° (SW) 2,538 4.1 -9.4°
Reaches altitude 10° 19:28:29 10° 229° (SW) 2,447 4.0 -9.3°
Maximum altitude 19:33:41 39° 297° (WNW) 1,247 2.8 -8.3°
Drops below altitude 10° 19:38:57 10° 5° (N) 2,464 4.9 -7.3°
Sets 19:41:35 0° 14° (NNE) 3,404 5.8 -6.8°
